Location: West Sayville
(40.7279°N, 73.0976°W)
Time: 04:48:04
(UTC+00:00)

Cosmos 2263 Rocket - Pass Details

Date: 29 October 2020
Orbit: 822 x 850 km, 71.0° (Epoch: 29 November)

Event Time Altitude Azimuth Distance (km) Brightness Sun altitude
Rises 23:43:57 0° 344° (NNW) 3,420 5.6 -21.8°
Reaches altitude 10° 23:46:41 10° 355° (N) 2,483 4.7 -22.3°
Enters shadow 23:50:22 28° 31° (NNE) 1,544 3.3 -23.0°
